Olympia, WA
on Thursday, December 20, 2012

Thursday
Previous Day Next Day
Daily Summary
 ActualAverageRecord
Temperature
Mean Temperature °F 38°F  
Max Temperature 46°F 44°F 56°F (1973)
Min Temperature 27°F 32°F 4°F (1990)
Degree Days
Heating Degree Days 28 27  
Month to date heating degree days 476 529  
Since 1 July heating degree days 1863 1974  
Cooling Degree Days 0 0  
Month to date cooling degree days 0 0  
Year to date cooling degree days 82 106  
Moisture
Dew Point 35°F   
Average Humidity 88    
Maximum Humidity 93    
Minimum Humidity 83    
Precipitation
Precipitation 0.67 in 0.22 in 1.87 in (1955)
Month to date precipitation 8.25 4.93  
Year to date precipitation 58.10 47.47  
Wind
Wind Speed 12 mph   
Max Wind Speed 29 mph   
Max Gust Speed 37 mph   
Visibility 6 miles   
Events Fog , Rain   

Key: T is trace of precipitation, MM is missing value
Source: NWS Daily Summary
Time(PST)TemperatureDew PointHumidity Pressure Visibility Wind DirectionWind SpeedGust SpeedPrecipitationEvents Conditions
12:54 AM 44.1°F 41.0°F 89% 29.50 in 10.0 miles South 15.0 mph 25.3 mph 0.02 in Rain Light Rain
1:54 AM 45.0°F 41.0°F 86% 29.49 in 10.0 miles South 23.0 mph 33.4 mph 0.04 in Rain Light Rain
2:03 AM 45.0°F 41.0°F 86% 29.50 in 10.0 miles South 24.2 mph 35.7 mph 0.00 in Rain Light Rain
2:54 AM 46.0°F 41.0°F 83% 29.52 in 10.0 miles South 26.5 mph 35.7 mph 0.00 in   Overcast
3:12 AM 45.0°F 41.0°F 86% 29.53 in 10.0 miles South 21.9 mph 36.8 mph N/A   Overcast
3:54 AM 45.0°F 39.9°F 82% 29.52 in 10.0 miles South 20.7 mph 32.2 mph 0.00 in Rain Light Rain
4:04 AM 45.0°F 39.9°F 82% 29.53 in 10.0 miles South 20.7 mph 31.1 mph 0.00 in Rain Light Rain
4:54 AM 44.1°F 39.9°F 85% 29.53 in 6.0 miles SSW 15.0 mph - 0.02 in Rain Light Rain
5:25 AM 43.0°F 39.9°F 89% 29.54 in 4.0 miles SSW 8.1 mph - 0.02 in Rain Light Rain
5:45 AM 42.1°F 39.9°F 92% 29.53 in 4.0 miles SW 6.9 mph - 0.06 in Rain Rain
5:54 AM 42.1°F 39.9°F 92% 29.55 in 5.0 miles SW 8.1 mph - 0.08 in Rain Rain
6:27 AM 42.1°F 39.9°F 92% 29.54 in 4.0 miles SW 11.5 mph 18.4 mph 0.06 in Rain Rain
6:42 AM 42.1°F 39.0°F 89% 29.55 in 3.0 miles WSW 8.1 mph - 0.11 in Rain Rain
6:54 AM 41.0°F 39.0°F 93% 29.56 in 3.0 miles SW 8.1 mph - 0.14 in Rain Rain
7:54 AM 41.0°F 39.9°F 96% 29.56 in 4.0 miles SSW 5.8 mph - 0.13 in Rain Light Rain
8:54 AM 41.0°F 39.0°F 93% 29.57 in 3.0 miles SSW 10.4 mph - 0.05 in Rain Light Rain
9:54 AM 39.9°F 37.0°F 89% 29.59 in 7.0 miles South 20.7 mph - 0.05 in Rain Light Rain
10:54 AM 39.0°F 36.0°F 89% 29.64 in 5.0 miles South 16.1 mph 21.9 mph 0.05 in Rain Light Rain
11:54 AM 39.0°F 37.0°F 93% 29.66 in 7.0 miles SSW 11.5 mph - 0.06 in Rain Light Rain
12:54 PM 39.0°F 37.0°F 93% 29.68 in 8.0 miles SSW 13.8 mph 25.3 mph 0.03 in Rain Light Rain
1:23 PM 39.0°F 36.0°F 89% 29.68 in 10.0 miles South 13.8 mph - 0.00 in   Mostly Cloudy
1:33 PM 39.9°F 37.0°F 89% 29.68 in 10.0 miles South 16.1 mph 25.3 mph 0.00 in   Mostly Cloudy
1:54 PM 39.9°F 36.0°F 86% 29.70 in 10.0 miles SSW 18.4 mph 26.5 mph 0.00 in   Scattered Clouds
2:54 PM 39.9°F 36.0°F 86% 29.73 in 10.0 miles South 18.4 mph 25.3 mph N/A   Partly Cloudy
3:54 PM 39.0°F 36.0°F 89% 29.75 in 10.0 miles SSW 13.8 mph - N/A   Mostly Cloudy
4:54 PM 37.9°F 35.1°F 89% 29.76 in 10.0 miles SSW 11.5 mph - 0.00 in   Partly Cloudy
5:54 PM 39.0°F 35.1°F 86% 29.79 in 10.0 miles South 9.2 mph - N/A   Partly Cloudy
6:54 PM 37.9°F 34.0°F 86% 29.81 in 10.0 miles SSW 5.8 mph - N/A   Mostly Cloudy
7:54 PM 37.0°F 33.1°F 86% 29.82 in 10.0 miles Calm Calm - N/A   Partly Cloudy
8:54 PM 32.0°F 30.0°F 92% 29.82 in 10.0 miles Calm Calm - N/A   Clear
9:54 PM 30.0°F 28.9°F 96% 29.83 in 6.0 miles Calm Calm - N/A   Clear
10:38 PM 28.9°F 28.9°F 100% 29.82 in 2.0 miles Calm Calm - N/A   Partly Cloudy
10:40 PM 28.9°F 28.0°F 96% 29.82 in 1.2 miles Calm Calm - N/A   Partly Cloudy
10:50 PM 28.4°F 28.4°F 100% 29.82 in 2.5 miles Calm Calm - N/A   Partly Cloudy
10:54 PM 28.0°F 27.0°F 96% 29.83 in 4.0 miles WSW 3.5 mph - N/A   Partly Cloudy
10:59 PM 28.0°F 27.0°F 96% 29.82 in 1.5 miles SSW 4.6 mph - N/A   Partly Cloudy
11:06 PM 28.0°F 27.0°F 96% 29.82 in 1.2 miles SW 3.5 mph - N/A   Partly Cloudy
11:08 PM 28.0°F 27.0°F 96% 29.82 in 2.0 miles SW 3.5 mph - N/A   Partly Cloudy
11:19 PM 28.0°F 27.0°F 96% 29.82 in 1.2 miles SE 4.6 mph - N/A   Scattered Clouds
11:29 PM 28.0°F 28.0°F 100% 29.82 in 2.5 miles Calm Calm - N/A   Partly Cloudy
11:35 PM 28.0°F 28.0°F 100% 29.82 in 1.2 miles Calm Calm - N/A   Partly Cloudy
11:37 PM 28.0°F 27.0°F 96% 29.82 in 0.8 miles Calm Calm - N/A   Mist
11:54 PM 28.0°F 27.0°F 96% 29.82 in 0.5 miles Calm Calm - N/A Fog Light Freezing Fog
Moon Phase
Dec. 20 Dec. 28 Jan. 04 Jan. 11 Jan. 18
Sunrise:07:54 AM (PST) Moon Rise:12:04 PM (PST)12/20
Sunset:04:24 PM (PST) Moon Set:12:26 AM (PST)12/20

Copyright © 2014 The Weather Underground, Inc.